�������r�C�����j�^�v���󋵏��
Date,Time,5�C6���@���p�r�C��,����,����(m/s)
2024/03/08,00:00,3.6,�k��,6.0
2024/03/08,00:10,3.8,�k��,6.4
2024/03/08,00:20,3.8,�k��,6.9
2024/03/08,00:30,3.8,�k��,7.1
2024/03/08,00:40,3.9,�k�k��,7.7
2024/03/08,00:50,3.9,�k��,7.3
2024/03/08,01:00,3.8,�k��,7.0
2024/03/08,01:10,3.9,�k��,7.0
2024/03/08,01:20,3.9,�k��,6.8
2024/03/08,01:30,3.9,�k��,7.1
2024/03/08,01:40,3.9,�k��,7.2
2024/03/08,01:50,3.9,�k��,6.7
2024/03/08,02:00,3.8,�k��,6.8
2024/03/08,02:10,3.7,�k��,6.2
2024/03/08,02:20,3.9,�k��,6.6
2024/03/08,02:30,3.8,�k��,4.2
2024/03/08,02:40,3.8,�k��,4.3
2024/03/08,02:50,3.7,�k��,5.7
2024/03/08,03:00,3.9,�k��,5.2
2024/03/08,03:10,3.7,�k��,5.8
2024/03/08,03:20,3.8,�k��,6.2
2024/03/08,03:30,3.8,�k��,5.6
2024/03/08,03:40,3.9,�k��,6.7
2024/03/08,03:50,4.0,�k��,8.1
2024/03/08,04:00,3.9,�k��,7.4
2024/03/08,04:10,3.9,�k�k��,8.1
2024/03/08,04:20,3.6,�k�k��,6.0
2024/03/08,04:30,3.7,�k�k��,6.1
2024/03/08,04:40,3.7,�k�k��,6.1
2024/03/08,04:50,3.8,�k�k��,6.9
2024/03/08,05:00,3.7,�k�k��,6.6
2024/03/08,05:10,4.0,�k�k��,6.7
2024/03/08,05:20,3.9,�k�k��,6.7
2024/03/08,05:30,3.8,�k�k��,6.3
2024/03/08,05:40,4.0,�k�k��,6.0
2024/03/08,05:50,4.0,�k�k��,7.1
2024/03/08,06:00,3.8,�k�k��,7.0
2024/03/08,06:10,3.7,�k�k��,6.5
2024/03/08,06:20,3.7,�k�k��,7.4
2024/03/08,06:30,3.7,�k�k��,6.6
2024/03/08,06:40,3.7,�k�k��,6.8
2024/03/08,06:50,3.8,�k�k��,7.3
2024/03/08,07:00,4.0,�k�k��,7.2
2024/03/08,07:10,3.9,�k�k��,8.1
2024/03/08,07:20,3.8,�k�k��,7.2
2024/03/08,07:30,3.8,�k�k��,7.7
2024/03/08,07:40,3.9,�k�k��,9.1
2024/03/08,07:50,3.8,�k�k��,8.8
2024/03/08,08:00,3.8,�k�k��,8.5
2024/03/08,08:10,3.9,�k��,8.1
2024/03/08,08:20,3.7,�k�k��,8.1
2024/03/08,08:30,3.7,�k�k��,8.9
2024/03/08,08:40,4.0,�k�k��,8.3
2024/03/08,08:50,3.8,�k�k��,9.7
2024/03/08,09:00,3.8,�k�k��,9.5
2024/03/08,09:10,3.7,�k�k��,9.0
2024/03/08,09:20,3.7,�k�k��,7.9
2024/03/08,09:30,3.8,�k�k��,8.7
2024/03/08,09:40,3.7,�k�k��,9.4
2024/03/08,09:50,3.9,�k�k��,8.9
2024/03/08,10:00,3.8,�k�k��,6.8
2024/03/08,10:10,3.9,�k�k��,8.3
2024/03/08,10:20,3.8,�k�k��,7.5
2024/03/08,10:30,3.9,�k�k��,7.8
2024/03/08,10:40,3.6,�k��,7.5
2024/03/08,10:50,3.7,�k�k��,7.9
2024/03/08,11:00,3.8,�k�k��,8.4
2024/03/08,11:10,3.7,�k��,7.9
2024/03/08,11:20,3.6,�k��,8.1
2024/03/08,11:30,3.7,�k��,8.2
2024/03/08,11:40,3.7,�k��,8.0
2024/03/08,11:50,3.9,�k��,8.0
2024/03/08,12:00,3.9,�k�k��,9.0
2024/03/08,12:10,3.7,�k�k��,8.3
2024/03/08,12:20,4.0,�k�k��,8.1
2024/03/08,12:30,3.9,�k�k��,7.8
2024/03/08,12:40,3.9,�k�k��,9.2
2024/03/08,12:50,3.9,�k��,9.3
2024/03/08,13:00,3.9,�k��,9.2
2024/03/08,13:10,3.8,�k�k��,8.5
2024/03/08,13:20,3.8,�k�k��,8.5
2024/03/08,13:30,3.9,�k�k��,8.6
2024/03/08,13:40,3.8,�k�k��,8.3
2024/03/08,13:50,3.9,�k�k��,9.4
2024/03/08,14:00,3.8,�k�k��,9.8
2024/03/08,14:10,3.9,�k�k��,11.7
2024/03/08,14:20,3.7,�k,11.0
2024/03/08,14:30,3.8,�k�k��,11.9
2024/03/08,14:40,3.8,�k�k��,11.8
2024/03/08,14:50,3.7,�k�k��,10.3
2024/03/08,15:00,3.8,�k�k��,10.5
2024/03/08,15:10,3.8,�k�k��,10.0
2024/03/08,15:20,3.7,�k�k��,9.1
2024/03/08,15:30,3.8,�k�k��,8.9
2024/03/08,15:40,3.9,�k�k��,9.3
2024/03/08,15:50,3.9,�k�k��,9.1
2024/03/08,16:00,3.7,�k�k��,8.2
2024/03/08,16:10,3.8,�k�k��,8.6
2024/03/08,16:20,4.0,�k�k��,9.9
2024/03/08,16:30,3.9,�k��,9.8
2024/03/08,16:40,3.8,�k�k��,11.1
2024/03/08,16:50,3.9,�k��,10.5
2024/03/08,17:00,3.8,�k�k��,10.2
2024/03/08,17:10,3.8,�k��,9.2
2024/03/08,17:20,3.8,�k�k��,8.8
2024/03/08,17:30,3.8,�k�k��,9.0
2024/03/08,17:40,3.7,�k�k��,9.7
2024/03/08,17:50,3.7,�k�k��,8.2
2024/03/08,18:00,3.7,�k�k��,8.1
2024/03/08,18:10,3.8,�k�k��,8.2
2024/03/08,18:20,3.6,�k�k��,9.3
2024/03/08,18:30,3.8,�k�k��,8.9
2024/03/08,18:40,3.9,�k�k��,8.4
2024/03/08,18:50,3.7,�k��,6.8
2024/03/08,19:00,3.7,�k��,7.4
2024/03/08,19:10,4.0,�k��,7.3
2024/03/08,19:20,3.8,�k��,7.4
2024/03/08,19:30,3.7,�k��,8.5
2024/03/08,19:40,3.7,�k��,8.4
2024/03/08,19:50,3.8,�k��,8.8
2024/03/08,20:00,3.7,�k�k��,8.5
2024/03/08,20:10,4.0,�k��,9.2
2024/03/08,20:20,3.9,�k��,8.0
2024/03/08,20:30,4.0,�k��,7.4
2024/03/08,20:40,3.8,�k��,7.2
2024/03/08,20:50,3.7,�k��,6.4
2024/03/08,21:00,3.8,�k��,7.4
2024/03/08,21:10,3.9,�k��,8.3
2024/03/08,21:20,3.7,�k��,8.0
2024/03/08,21:30,3.9,�k��,7.6
2024/03/08,21:40,3.8,�k��,7.6
2024/03/08,21:50,3.9,�k��,7.2
2024/03/08,22:00,3.9,�k��,6.7
2024/03/08,22:10,3.9,�k��,7.0
2024/03/08,22:20,3.7,�k��,6.7
2024/03/08,22:30,3.7,�k��,7.3
2024/03/08,22:40,3.8,�k��,7.0
2024/03/08,22:50,3.9,�k��,5.8
2024/03/08,23:00,3.9,�k��,6.4
2024/03/08,23:10,4.0,�k��,6.7
2024/03/08,23:20,3.8,�k��,6.5
2024/03/08,23:30,3.9,�k��,7.4
2024/03/08,23:40,3.8,�k��,6.6
2024/03/08,23:50,3.9,�k��,6.2
